www.pogodaiklimat.ru

Погода и климат >> Архив погоды >> Индия >> Indore


ПОГОДА в Indore

  • Прогноз погоды в Indore
  • Монитор погоды в Indore
  • Климат города

АРХИВ ПОГОДЫ в Indore

Время (UTC), дата Ветер
(напр.,м/с)
 
Видим.   Явления Облачность Т
(С)
Тd
(С)
f
(%)
Тe
(С)
Тes
(С)
Комфортность P
(гПа)
Po
(гПа)
Тmin
(С)
Tmax
(С)
R
(мм)
R24
(мм)
S
(см)
00 19.02 В 1 4000 м мгла ясно +16.8 +6.8 52 +18 +18 1011.9 947.3
03 19.02 В 3 4000 м мгла ясно +20.6 +8.6 46 +22 +25 комфорт 1013.1 949.2 +15.4
06 19.02 ЮВ 4 4000 м мгла 3/0
[Ci fib]
+28.4 +7.9 28 +28 +37 жарко 1012.2 949.8
09 19.02 Ю 3 4000 м мгла 5/0
[Ci fib]
+31.0 +17.0 43 +35 +44 очень
душно
1008.6 947.0
12 19.02 СВ 3 4000 м мгла 5/0
[Ci fib]
+30.0 +14.9 40 +32 +33 жарко 1008.3 946.6 +31.5
15 19.02 С 2 4000 м мгла 5/0
[Ci fib]
+24.2 +7.5 34 +24 +24 комфорт 1011.4 948.5
18 19.02 СВ 2 4000 м мгла 4/0
[Ci fib]
+21.4 +6.9 39 +22 +22 комфорт 1012.9 949.2
21 19.02 С 2 4000 м мгла 4/0
[Ci fib]
+19.8 +6.6 42 +21 +21 комфорт 1012.2 948.2
00 20.02 В 2 4000 м мгла ясно +19.4 +10.6 57 +21 +21 комфорт 1011.9 947.9
03 20.02 В 1 4000 м мгла ясно +21.2 +10.3 50 +23 +27 комфорт 1013.3 949.8 +16.8
06 20.02 В 4 4000 м мгла ясно +28.4 +5.7 24 +27 +37 жарко 1012.4 950.3
09 20.02 В 2 4000 м мгла ясно +30.4 +8.1 25 +30 +42 жарко 1009.3 947.7
12 20.02 СВ 2 4000 м мгла ясно +30.6 +6.2 22 +29 +30 жарко 1008.3 946.9 +31.5
15 20.02 С 3 4000 м мгла ясно +24.0 +7.7 35 +24 +24 комфорт 1011.5 948.4
18 20.02 В 2 4000 м мгла ясно +23.0 +7.7 37 +24 +24 комфорт 1011.8 948.5
21 20.02 В 3 4000 м мгла ясно +21.4 +7.8 42 +22 +22 комфорт 1011.2 947.7
00 21.02 В 2 4000 м мгла ясно +17.4 +9.4 59 +18 +18 1011.4 947.0
03 21.02 Ю 1 2000 м мгла ясно +22.6 +8.6 41 +24 +28 комфорт 1012.1 948.8 +15.0
06 21.02 Ю 4 4000 м ясно +29.8 +9.2 28 +29 +39 жарко 1011.3 949.4
09 21.02 З 3 4000 м ясно +32.4 +4.0 17 +30 +39 жарко 1007.7 946.6
12 21.02 В 2 4000 м ясно +30.8 +4.1 18 +29 +29 жарко 1006.8 945.4 +33.2
15 21.02 С 2 4000 м мгла ясно +25.2 +7.5 32 +25 +25 комфорт 1009.6 947.0
18 21.02 В 1 4000 м мгла ясно +22.0 +6.8 37 +23 +23 комфорт 1011.0 947.5
21 21.02 В 2 4000 м мгла ясно +19.4 +6.5 43 +21 +21 комфорт 1010.4 946.6
00 22.02 В 2 4000 м мгла ясно +17.6 +7.4 51 +18 +18 1010.5 946.2
03 22.02 З 2 2000 м мгла ясно +21.8 +7.9 41 +23 +27 комфорт 1011.1 947.6 +15.5
06 22.02 Ю 3 4000 м мгла ясно +31.0 +6.9 22 +30 +43 жарко 1009.8 948.2
09 22.02 В 2 4000 м 1/1 750 м
[Sc]
+32.8 +6.1 19 +31 +42 жарко 1006.2 945.1
12 22.02 ЮЗ 4 4000 м 1/1 750 м
[Sc]
+32.0 +10.2 26 +32 +32 жарко 1005.6 944.5 +33.7
15 22.02 З 3 4000 м мгла 1/1 750 м
[Sc]
+25.0 +9.7 38 +26 +26 жарко 1009.4 946.9
18 22.02 СЗ 3 4000 м мгла ясно +23.0 +7.7 37 +24 +24 комфорт 1010.9 947.6
21 22.02 З 2 4000 м мгла ясно +21.0 +7.3 41 +23 +23 комфорт 1010.2 946.6
00 23.02 З 1 4000 м мгла ясно +18.4 +8.0 51 +20 +20 1009.9 945.9
03 23.02 штиль 0 2000 м мгла ясно +20.6 +10.0 51 +22 +27 комфорт 1011.7 948.0 +16.4
06 23.02 Ю 3 4000 м мгла ясно +31.4 +9.2 25 +31 +43 жарко 1009.7 948.3
09 23.02 Ю 3 4000 м мгла ясно +33.2 +8.1 21 +32 +42 жарко 1006.1 945.2
12 23.02 ЮЗ 4 4000 м мгла 3/0
[Ci fib]
+32.4 +9.4 24 +31 +32 жарко 1005.8 944.9 +34.5
15 23.02 З 1 4000 м мгла ясно +26.2 +8.5 33 +26 +26 жарко 1009.4 947.0
18 23.02 СЗ 2 4000 м мгла ясно +24.0 +10.1 41 +25 +25 комфорт 1010.7 947.8
21 23.02 С 1 4000 м мгла ясно +21.8 +10.7 49 +24 +24 комфорт 1010.7 947.2
00 24.02 штиль 0 4000 м мгла ясно +19.2 +10.3 56 +20 +20 1011.4 947.4
03 24.02 штиль 0 4000 м мгла 3/3 750 м
[Sc]
+21.0 +12.6 59 +23 +27 комфорт 1013.6 949.9 +17.4
06 24.02 С 3 4000 м мгла ясно +31.0 +10.6 28 +31 +45 жарко 1012.1 950.4
09 24.02 З 4 4000 м мгла 4/4 750 м
[Sc]
+33.4 +11.5 26 +33 +38 жарко 1008.8 947.8
12 24.02 С 3 4000 м мгла 4/4 750 м
[Sc]
+31.8 +12.3 30 +32 +33 жарко 1008.9 947.5 +34.2
15 24.02 С 1 4000 м мгла 3/3 750 м
[Sc]
+26.4 +13.3 44 +28 +28 жарко 1012.1 949.5
18 24.02 С 3 4000 м мгла ясно +24.0 +11.0 44 +25 +25 комфорт 1013.3 950.1
21 24.02 С 2 4000 м мгла ясно +22.0 +9.6 45 +19 +19 1013.0 949.3
00 25.02 В 2 4000 м мгла ясно +20.0 +9.6 51 +22 +22 комфорт 1013.5 949.4
03 25.02 С 2 2000 м мгла 3/0
[Ac trans]
+21.6 +11.3 52 +24 +27 комфорт 1015.3 951.5 +18.0
06 25.02 С 3 4000 м мгла ясно +30.2 +10.8 30 +30 +44 жарко 1014.2 952.8
09 25.02 С 3 4000 м мгла 3/0
[Ac trans]
+32.4 +10.4 26 +32 +41 жарко 1010.6 949.3
12 25.02 С 3 4000 м мгла ясно +31.4 +10.7 28 +31 +32 жарко 1010.1 948.7 +33.2
15 25.02 С 3 4000 м мгла ясно +26.4 +11.2 39 +28 +28 жарко 1012.6 950.0
18 25.02 СВ 3 4000 м мгла ясно +23.6 +13.8 54 +26 +26 жарко 1013.6 950.4
21 25.02 СВ 3 4000 м мгла ясно +21.6 +12.9 58 +24 +24 комфорт 1013.2 949.5

 

Местоположение метеостанции Indore (Madhya Pradesh, Индия): широта 22.72 долгота 75.80 высота над уровнем моря 567 м.

В архиве по умолчанию представлена погода в Indore за последнюю неделю. Архивные данные за месяц целиком и за предыдущие месяцы, начиная с января 2011 года, Вы можете получить, выбрав интересующий диапазон дат из раскрывающегося списка и нажав кнопку "Ввод!".

Внимание! Время в таблицах - всемирное. Для получения местного времени необходимо прибавить поправку, которая в Indore равна 5.5 ч.

Смотрите также архив погоды в соседних городах и на ближайших метеорологических станциях:

Погода в Ujjain (Madhya Pradesh, Индия) (51 км)
Погода в Dhar (Madhya Pradesh, Индия) (53 км)
Погода в Shajapur (Madhya Pradesh, Индия) (95 км)
Погода в Ratlam (Madhya Pradesh, Индия) (102 км)
Погода в Khargone (Madhya Pradesh, Индия) (102 км)
Погода в Khandwa (Madhya Pradesh, Индия) (115 км)
Погода в Bhopal (Madhya Pradesh, Индия) (170 км)
Погода в Rajgarh (Madhya Pradesh, Индия) (171 км)
Погода в Jalgaon (Maharashtra, Индия) (187 км)
Погода в Hoshangabad (Madhya Pradesh, Индия) (202 км)

Пояснения к столбцам:

Ветер - указаны скорость ветра в м/с - средняя за 10 мин, порывы в срок и между сроками (в фигурных скобках) и направление, откуда дует ветер: С - северный, СВ - северо-восточный, В - восточный, ЮВ - юго-восточный, Ю - южный, ЮЗ - юго-западный, З - западный, СЗ - северо-западный.
Видимость - горизонтальная дальность видимости в метрах или километрах. При видимости от 1 до 10 км при отсутствии осадков обычно наблюдается дымка, при ухудшении видимости до 1 км и менее - туман. В сухую погоду видимость может ухудшаться дымом, пылью или мглою.
Явления - указаны атмосферные явления, наблюдавшиеся в срок или в последний час перед сроком; фигурными скобками обозначены явления, наблюдавшиеся между сроками (за 1-3 часа до срока); квадратными скобками обозначены град или гололедные отложения с указанием их диаметра в мм.
Облачность - указаны через наклонную черту общая и нижняя облачность в баллах и высота нижней границы облаков в метрах; квадратными скобками обозначены формы облаков: Ci - перистые, Cs - перисто-слоистые, Cc - перисто-кучевые, Ac - высококучевые, As - высокослоистые, Sc - слоисто-кучевые, Ns - слоисто-дождевые, Cu - кучевые, Cb - кучево-дождевые. Подробнее классификацию облаков см. в Атласе облаков (PDF).
T - Температура воздуха - температура, измеренная на высоте 2 м над землей.
Td - Температура точки росы - температура, при понижении до которой содержащийся в воздухе водяной пар достигнет насыщения.
f - Относительная влажность воздуха - влажноcть воздуха, измеренная на высоте 2 м над землей.
Te - Эффективная температура - температура, которую ощущает одетый по сезону человек в тени. Характеристика душности погоды. При расчете учитывается влияние влажности воздуха и скорости ветра на теплоощущения человека.
Tes - Эффективная температура на солнце - температура, которую ощущает человек, с поправкой на солнечный нагрев. Характеристика знойности погоды. Зависит от высоты солнца над горизонтом, облачности и скорости ветра. Ночью, в пасмурную погоду, а также при ветре 12 м/с и более поправка равна нулю.
P - Атмосферное давление - приведенное к уровню моря атмосферное давление.
Po - Атмосферное давление - измеренное на уровне метеостанции атмосферное давление.
Tmin - Минимальная температура - минимум температуры воздуха на высоте 2 м над землей.
Tmax - Максимальная температура - максимум температуры воздуха на высоте 2 м над землей.
R - Количество осадков - Количество выпавших осадков за период времени, мм. При наведении курсора мыши на число - период времени, за который выпало указанное количество осадков.
R24 - Количество осадков - Количество выпавших осадков за 24 часа, мм.
S - Снежный покров - Высота снежного покрова, см. При наведении курсора мыши на число - состояние снежного покрова и степень покрытия местности в баллах.